Home   Weather   Brumunddal   Past weeks

Flag for Norway Past Weather in Brumunddal, Norway — Yesterday and Last 2 Weeks

Now
18 °F

Cold.


Feels Like: 18 °F
Forecast: 12 / 26 °F
Wind: 1 mph from Northeast

Location: Lillehammer-Saetherengen

Current Time: Jan 17, 2017 at 8:01:37 am

Latest Report: Jan 17, 2017 at 7:00 am


Visibility: N/A

Pressure: 30.39 "Hg

Humidity: 87%

Dew Point: 15 °F

Location of BrumunddalLocation

Past Weather in Brumunddal — Graph

°F

Brumunddal Temperature Yesterday

Maximum temperature yesterday: 18 °F (at 2:00 pm)
Minimum temperature yesterday: 11 °F (at 8:00 pm)
Average temperature yesterday: 15 °F

High & Low Weather Summary for the Past Weeks

 TemperatureHumidityPressure
High39 °F (Jan 11, 4:00 am)99% (Jan 12, 6:00 am)30.67 "Hg (Jan 12, 6:00 am)
Low0 °F (Jan 6, 4:00 am)54% (Jan 4, 8:00 am)28.58 "Hg (Jan 11, 4:00 pm)
Average19 °F88%29.77 "Hg
* Reported Jan 2 7:00 am — Jan 17 7:00 am, Brumunddal, Weather by CustomWeather, © 2017

Note: Actual official high and low records may vary slightly from our data, if they occured in-between our weather recording intervals... More about our weather records

Advertising

Brumunddal Weather History for the Previous 24 Hours

Scroll right to see more
 ConditionsComfort  
Time TempWeatherWind HumidityBarometerVisibility
7:00 am
Tue, Jan 17
18 °FCold.1 mph87%30.39 "HgN/A
6:00 am17 °FCold.1 mph88%30.40 "HgN/A
5:00 am18 °FCold.1 mph87%30.40 "HgN/A
4:00 am17 °FCold.2 mph87%30.41 "HgN/A
3:00 am16 °FCold.1 mph87%30.41 "HgN/A
2:00 am15 °FCold.1 mph85%30.42 "HgN/A
1:00 am16 °FCold.1 mph84%30.42 "HgN/A
12:00 am15 °FCold.1 mph85%30.43 "HgN/A
11:00 pm
Mon, Jan 16
16 °FCold.2 mph83%30.44 "HgN/A
10:00 pm14 °FCold.1 mph84%30.44 "HgN/A
9:00 pm13 °FCold.1 mph86%30.42 "HgN/A
8:00 pm11 °FCold.1 mph86%30.43 "HgN/A
7:00 pm13 °FCold.1 mph87%30.42 "HgN/A
6:00 pm12 °FCold.1 mph86%30.43 "HgN/A
5:00 pm15 °FCold.1 mph85%30.42 "HgN/A
4:00 pm14 °FCold.1 mph85%30.42 "HgN/A
3:00 pm17 °FCold.1 mph81%30.42 "HgN/A
2:00 pm18 °FCold.2 mph79%30.42 "HgN/A
1:00 pm17 °FCold.3 mph80%30.43 "HgN/A
12:00 pm17 °FCold.2 mph81%30.43 "HgN/A
11:00 am14 °FCold.2 mph85%30.43 "HgN/A
10:00 am16 °FCold.2 mph83%30.42 "HgN/A
9:00 am17 °FCold.2 mph83%30.39 "HgN/A
8:00 am16 °FCold.2 mph84%30.37 "HgN/A
Weather by CustomWeather, © 2017

See weather overviewHow to use our weather pages